QPF
0.04 0.03 0.03 0.04 0.04 0.07 0.08 0.08 0.07 0.02 0.01 0.01 0.01 0.03 0.03 0.01 0.01 0.02 0.00 0.00 0.00 0.00 0.01 0.00 0.00 0.00 0.00 0.01 0.01 0.01 0.01 0.01 0.01 0.01 0.01 0.01 0.01 0.00 0.00 0.00 0.00 0.00 0.00
0.04 0.05 0.05 0.06 0.04 0.04 0.05 0.06 0.07 0.03 0.01 0.01 0.01 0.03 0.04 0.02 0.02 0.02 0.01 0.01 0.01 0.01 0.01 0.01 0.00 0.00 0.00 0.01 0.02 0.02 0.02 0.01 0.01 0.01 0.01 0.01 0.01 0.01 0.01 0.00 0.00 0.00 0.00
0.04 0.05 0.07 0.10 0.09 0.06 0.05 0.04 0.04 0.05 0.03 0.03 0.04 0.04 0.03 0.03 0.03 0.02 0.01 0.01 0.01 0.02 0.03 0.02 0.01 0.00 0.00 0.01 0.01 0.02 0.03 0.03 0.03 0.02 0.02 0.02 0.02 0.02 0.02 0.01 0.01 0.01 0.01
0.04 0.07 0.10 0.11 0.12 0.10 0.09 0.09 0.08 0.07 0.07 0.07 0.06 0.06 0.06 0.05 0.04 0.02 0.02 0.01 0.01 0.01 0.01 0.01 0.01 0.00 0.00 0.00 0.01 0.02 0.03 0.03 0.03 0.03 0.03 0.03 0.03 0.03 0.02 0.02 0.02 0.02 0.02
0.04 0.07 0.09 0.11 0.14 0.14 0.13 0.12 0.12 0.13 0.14 0.13 0.10 0.10 0.09 0.08 0.06 0.04 0.03 0.02 0.02 0.01 0.01 0.01 0.00 0.00 0.00 0.00 0.01 0.01 0.02 0.02 0.02 0.03 0.03 0.03 0.03 0.02 0.02 0.01 0.01 0.02 0.01
0.05 0.08 0.09 0.12 0.13 0.14 0.15 0.15 0.15 0.14 0.15 0.15 0.13 0.11 0.10 0.09 0.06 0.04 0.03 0.02 0.01 0.01 0.01 0.00 0.00 0.00 0.00 0.00 0.00 0.01 0.01 0.01 0.01 0.02 0.02 0.02 0.02 0.02 0.01 0.01 0.01 0.01 0.02
0.08 0.10 0.11 0.12 0.12 0.13 0.15 0.16 0.16 0.16 0.17 0.15 0.14 0.12 0.08 0.05 0.04 0.04 0.03 0.02 0.01 0.01 0.00 0.00 0.00 0.00 0.00 0.00 0.00 0.00 0.00 0.01 0.01 0.01 0.01 0.01 0.01 0.01 0.01 0.01 0.01 0.02 0.02
0.11 0.11 0.10 0.09 0.10 0.12 0.14 0.16 0.17 0.20 0.20 0.17 0.15 0.14 0.10 0.06 0.03 0.02 0.02 0.01 0.01 0.00 0.00 0.00 0.00 0.00 0.00 0.00 0.00 0.00 0.00 0.00 0.00 0.00 0.01 0.01 0.01 0.01 0.01 0.01 0.01 0.02 0.02
0.11 0.11 0.09 0.09 0.09 0.09 0.11 0.14 0.15 0.17 0.18 0.16 0.12 0.11 0.10 0.07 0.03 0.02 0.01 0.01 0.01 0.00 0.00 0.00 0.00 0.00 0.00 0.00 0.00 0.00 0.00 0.00 0.00 0.00 0.00 0.00 0.00 0.00 0.00 0.01 0.01 0.02 0.02
0.07 0.07 0.06 0.06 0.06 0.07 0.08 0.08 0.08 0.09 0.10 0.09 0.07 0.05 0.05 0.04 0.03 0.02 0.01 0.01 0.01 0.00 0.00 0.00 0.00 0.00 0.00 0.00 0.00 0.00 0.00 0.00 0.00 0.00 0.00 0.00 0.00 0.00 0.00 0.00 0.00 0.01 0.01
0.04 0.03 0.03 0.02 0.02 0.03 0.04 0.04 0.03 0.04 0.04 0.03 0.03 0.02 0.03 0.03 0.02 0.02 0.01 0.01 0.00 0.00 0.00 0.00 0.00 0.00 0.00 0.00 0.00 0.00 0.00 0.00 0.00 0.00 0.00 0.00 0.00 0.00 0.00 0.00 0.00 0.01 0.01
0.03 0.02 0.01 0.01 0.01 0.01 0.01 0.02 0.02 0.02 0.02 0.02 0.02 0.02 0.02 0.02 0.03 0.02 0.02 0.01 0.01 0.01 0.00 0.01 0.00 0.00 0.00 0.00 0.00 0.00 0.00 0.00 0.00 0.00 0.00 0.00 0.00 0.00 0.00 0.00 0.01 0.01 0.01
0.02 0.01 0.00 0.00 0.00 0.00 0.01 0.01 0.01 0.01 0.01 0.02 0.02 0.02 0.02 0.02 0.02 0.02 0.02 0.02 0.01 0.01 0.01 0.01 0.00 0.00 0.00 0.00 0.00 0.00 0.00 0.00 0.00 0.00 0.00 0.00 0.00 0.00 0.00 0.00 0.01 0.01 0.01
0.01 0.00 0.00 0.00 0.00 0.00 0.00 0.01 0.01 0.01 0.01 0.01 0.01 0.01 0.01 0.01 0.01 0.01 0.01 0.01 0.01 0.01 0.00 0.00 0.00 0.00 0.00 0.00 0.00 0.00 0.00 0.00 0.00 0.00 0.00 0.00 0.00 0.00 0.00 0.00 0.00 0.01 0.01
0.00 0.00 0.00 0.00 0.00 0.00 0.00 0.00 0.00 0.00 0.00 0.01 0.01 0.01 0.01 0.00 0.00 0.00 0.00 0.01 0.01 0.00 0.00 0.00 0.00 0.00 0.00 0.00 0.00 0.00 0.00 0.00 0.00 0.00 0.00 0.00 0.00 0.00 0.00 0.00 0.00 0.01 0.01
0.00 0.00 0.00 0.00 0.00 0.00 0.00 0.00 0.00 0.00 0.00 0.01 0.00 0.00 0.00 0.00 0.00 0.00 0.00 0.00 0.00 0.00 0.00 0.00 0.00 0.00 0.00 0.00 0.00 0.00 0.00 0.00 0.00 0.00 0.00 0.01 0.01 0.01 0.00 0.01 0.01 0.01 0.01
0.00 0.00 0.00 0.00 0.00 0.00 0.00 0.00 0.00 0.00 0.00 0.00 0.00 0.00 0.00 0.00 0.00 0.00 0.00 0.00 0.00 0.00 0.00 0.00 0.00 0.00 0.00 0.00 0.00 0.00 0.00 0.01 0.01 0.01 0.01 0.01 0.01 0.00 0.00 0.00 0.00 0.01 0.01
0.00 0.00 0.00 0.00 0.00 0.00 0.00 0.00 0.00 0.00 0.00 0.00 0.00 0.00 0.00 0.00 0.00 0.00 0.01 0.01 0.01 0.01 0.01 0.01 0.01 0.00 0.01 0.01 0.01 0.02 0.01 0.01 0.01 0.01 0.01 0.00 0.00 0.00 0.00 0.00 0.00 0.00 0.00
0.00 0.00 0.00 0.00 0.00 0.00 0.00 0.00 0.00 0.00 0.00 0.00 0.00 0.00 0.00 0.01 0.01 0.01 0.01 0.01 0.01 0.02 0.02 0.03 0.02 0.02 0.01 0.01 0.03 0.03 0.02 0.04 0.02 0.01 0.00 0.00 0.01 0.01 0.01 0.00 0.00 0.00 0.00
0.00 0.00 0.00 0.00 0.00 0.00 0.00 0.00 0.00 0.00 0.00 0.00 0.01 0.01 0.01 0.01 0.01 0.02 0.01 0.02 0.02 0.03 0.03 0.03 0.03 0.02 0.02 0.03 0.05 0.05 0.04 0.04 0.03 0.02 0.02 0.01 0.01 0.01 0.01 0.01 0.00 0.00 0.00
0.00 0.00 0.00 0.00 0.00 0.00 0.00 0.00 0.00 0.00 0.00 0.01 0.01 0.01 0.01 0.01 0.01 0.00 0.00 0.01 0.02 0.03 0.03 0.04 0.04 0.03 0.03 0.05 0.06 0.06 0.05 0.04 0.03 0.03 0.04 0.02 0.03 0.04 0.04 0.04 0.03 0.02 0.01
0.01 0.01 0.00 0.00 0.00 0.00 0.00 0.00 0.00 0.00 0.00 0.01 0.01 0.02 0.02 0.01 0.01 0.01 0.01 0.01 0.01 0.02 0.03 0.05 0.05 0.05 0.05 0.06 0.07 0.06 0.06 0.05 0.03 0.03 0.04 0.02 0.04 0.04 0.04 0.05 0.04 0.02 0.01
0.01 0.01 0.01 0.01 0.01 0.00 0.00 0.00 0.00 0.00 0.00 0.01 0.02 0.02 0.02 0.02 0.02 0.03 0.02 0.01 0.01 0.03 0.04 0.06 0.07 0.07 0.07 0.07 0.07 0.06 0.05 0.05 0.04 0.03 0.05 0.04 0.05 0.05 0.04 0.03 0.01 0.00 0.00
0.01 0.01 0.01 0.01 0.02 0.01 0.00 0.00 0.00 0.00 0.01 0.01 0.02 0.02 0.03 0.04 0.03 0.01 0.00 0.01 0.03 0.06 0.06 0.06 0.07 0.06 0.05 0.04 0.04 0.04 0.04 0.04 0.03 0.04 0.07 0.05 0.04 0.05 0.03 0.05 0.03 0.01 0.00
0.01 0.01 0.01 0.01 0.02 0.02 0.00 0.00 0.00 0.00 0.01 0.01 0.01 0.02 0.02 0.04 0.01 0.00 0.00 0.02 0.03 0.05 0.03 0.02 0.02 0.02 0.01 0.01 0.01 0.02 0.04 0.05 0.04 0.03 0.05 0.05 0.03 0.03 0.02 0.04 0.04 0.02 0.01
0.02 0.02 0.01 0.01 0.02 0.02 0.00 0.00 0.00 0.00 0.01 0.01 0.02 0.03 0.03 0.01 0.00 0.00 0.00 0.02 0.03 0.03 0.02 0.02 0.04 0.05 0.05 0.04 0.03 0.04 0.06 0.06 0.06 0.05 0.04 0.04 0.03 0.03 0.02 0.02 0.03 0.05 0.06
MSLP
1015.20 1015.45 1015.66 1015.84 1016.03 1016.22 1016.44 1016.67 1016.90 1017.11 1017.25 1017.33 1017.33 1017.27 1017.20 1017.14 1017.14 1017.24 1017.44 1017.75 1018.13 1018.55 1018.95 1019.31 1019.60 1019.79 1019.91 1019.96 1019.99 1020.00 1020.03 1020.08 1020.17 1020.28 1020.42 1020.56 1020.69 1020.81 1020.92 1021.01 1021.08 1021.16 1021.23
1014.68 1014.97 1015.22 1015.46 1015.70 1015.95 1016.22 1016.52 1016.82 1017.11 1017.36 1017.55 1017.66 1017.71 1017.70 1017.68 1017.68 1017.72 1017.85 1018.06 1018.35 1018.68 1019.02 1019.34 1019.61 1019.81 1019.93 1019.99 1019.99 1019.98 1019.96 1019.97 1020.01 1020.08 1020.17 1020.28 1020.40 1020.51 1020.60 1020.68 1020.75 1020.81 1020.88
1014.40 1014.72 1015.02 1015.32 1015.60 1015.90 1016.22 1016.57 1016.94 1017.31 1017.65 1017.94 1018.16 1018.29 1018.35 1018.35 1018.33 1018.32 1018.35 1018.45 1018.61 1018.84 1019.10 1019.38 1019.63 1019.83 1019.97 1020.04 1020.06 1020.04 1020.00 1019.97 1019.96 1019.98 1020.04 1020.12 1020.21 1020.29 1020.37 1020.44 1020.49 1020.54 1020.60
1014.36 1014.72 1015.07 1015.40 1015.72 1016.06 1016.41 1016.79 1017.19 1017.61 1018.02 1018.40 1018.70 1018.91 1019.03 1019.05 1019.01 1018.93 1018.87 1018.84 1018.88 1018.99 1019.17 1019.39 1019.62 1019.83 1019.99 1020.09 1020.13 1020.12 1020.09 1020.04 1020.01 1020.00 1020.03 1020.07 1020.13 1020.20 1020.25 1020.29 1020.32 1020.35 1020.40
1014.55 1014.93 1015.31 1015.67 1016.01 1016.36 1016.71 1017.09 1017.51 1017.95 1018.40 1018.83 1019.20 1019.48 1019.64 1019.69 1019.63 1019.50 1019.34 1019.20 1019.11 1019.11 1019.19 1019.34 1019.54 1019.76 1019.94 1020.09 1020.17 1020.20 1020.19 1020.15 1020.12 1020.10 1020.10 1020.13 1020.16 1020.20 1020.23 1020.25 1020.25 1020.25 1020.27
1014.89 1015.29 1015.69 1016.06 1016.41 1016.74 1017.08 1017.43 1017.82 1018.26 1018.72 1019.18 1019.60 1019.93 1020.14 1020.21 1020.15 1019.98 1019.74 1019.50 1019.30 1019.18 1019.16 1019.24 1019.41 1019.61 1019.82 1020.00 1020.13 1020.21 1020.24 1020.24 1020.23 1020.22 1020.23 1020.24 1020.27 1020.28 1020.29 1020.28 1020.25 1020.22 1020.20
1015.33 1015.75 1016.15 1016.52 1016.86 1017.16 1017.46 1017.77 1018.12 1018.52 1018.98 1019.45 1019.90 1020.28 1020.53 1020.64 1020.58 1020.38 1020.09 1019.76 1019.46 1019.23 1019.11 1019.11 1019.22 1019.40 1019.62 1019.83 1020.00 1020.14 1020.22 1020.27 1020.30 1020.32 1020.34 1020.36 1020.38 1020.39 1020.38 1020.34 1020.28 1020.21 1020.15
1015.82 1016.25 1016.66 1017.02 1017.33 1017.60 1017.84 1018.10 1018.40 1018.76 1019.20 1019.67 1020.14 1020.55 1020.85 1020.99 1020.95 1020.74 1020.40 1020.01 1019.61 1019.28 1019.06 1018.97 1019.01 1019.15 1019.35 1019.57 1019.78 1019.96 1020.10 1020.20 1020.28 1020.34 1020.39 1020.44 1020.47 1020.48 1020.45 1020.39 1020.30 1020.20 1020.09
1016.36 1016.79 1017.20 1017.54 1017.83 1018.06 1018.25 1018.45 1018.70 1019.02 1019.42 1019.89 1020.37 1020.81 1021.14 1021.31 1021.29 1021.08 1020.72 1020.26 1019.79 1019.37 1019.04 1018.86 1018.81 1018.89 1019.06 1019.27 1019.49 1019.70 1019.88 1020.03 1020.16 1020.26 1020.35 1020.42 1020.47 1020.49 1020.46 1020.39 1020.27 1020.13 1019.99
1016.92 1017.35 1017.75 1018.08 1018.34 1018.54 1018.69 1018.84 1019.04 1019.32 1019.70 1020.15 1020.63 1021.08 1021.43 1021.62 1021.61 1021.40 1021.02 1020.53 1019.99 1019.49 1019.07 1018.79 1018.66 1018.66 1018.77 1018.95 1019.16 1019.38 1019.59 1019.77 1019.93 1020.07 1020.19 1020.29 1020.36 1020.38 1020.36 1020.28 1020.15 1019.99 1019.81
1017.52 1017.94 1018.32 1018.63 1018.87 1019.03 1019.16 1019.27 1019.44 1019.68 1020.02 1020.44 1020.91 1021.35 1021.70 1021.90 1021.90 1021.69 1021.30 1020.78 1020.19 1019.63 1019.13 1018.77 1018.55 1018.48 1018.53 1018.66 1018.84 1019.04 1019.24 1019.44 1019.61 1019.77 1019.92 1020.03 1020.11 1020.15 1020.13 1020.05 1019.92 1019.75 1019.55
1018.12 1018.52 1018.88 1019.17 1019.39 1019.53 1019.63 1019.72 1019.85 1020.06 1020.36 1020.75 1021.18 1021.59 1021.92 1022.11 1022.11 1021.89 1021.50 1020.96 1020.36 1019.76 1019.22 1018.79 1018.51 1018.37 1018.35 1018.42 1018.56 1018.72 1018.90 1019.07 1019.24 1019.40 1019.53 1019.65 1019.73 1019.77 1019.75 1019.68 1019.55 1019.37 1019.18
1018.72 1019.09 1019.42 1019.69 1019.88 1020.01 1020.09 1020.16 1020.26 1020.43 1020.69 1021.02 1021.39 1021.76 1022.05 1022.20 1022.18 1021.97 1021.58 1021.05 1020.46 1019.85 1019.30 1018.85 1018.53 1018.33 1018.26 1018.27 1018.34 1018.45 1018.58 1018.71 1018.84 1018.96 1019.06 1019.15 1019.21 1019.24 1019.21 1019.14 1019.02 1018.86 1018.68
1019.28 1019.61 1019.91 1020.15 1020.33 1020.44 1020.50 1020.55 1020.63 1020.75 1020.95 1021.22 1021.52 1021.81 1022.04 1022.15 1022.11 1021.90 1021.53 1021.04 1020.48 1019.91 1019.38 1018.94 1018.60 1018.38 1018.25 1018.20 1018.21 1018.25 1018.30 1018.36 1018.42 1018.47 1018.52 1018.56 1018.58 1018.56 1018.52 1018.44 1018.32 1018.18 1018.02
1019.79 1020.08 1020.35 1020.57 1020.72 1020.82 1020.87 1020.90 1020.94 1021.01 1021.15 1021.33 1021.55 1021.76 1021.91 1021.97 1021.91 1021.70 1021.37 1020.93 1020.44 1019.94 1019.47 1019.06 1018.74 1018.50 1018.34 1018.23 1018.16 1018.12 1018.08 1018.04 1018.01 1017.97 1017.93 1017.89 1017.84 1017.77 1017.68 1017.58 1017.46 1017.34 1017.21
1020.27 1020.52 1020.75 1020.95 1021.09 1021.17 1021.20 1021.21 1021.21 1021.23 1021.29 1021.39 1021.51 1021.62 1021.70 1021.71 1021.63 1021.44 1021.15 1020.78 1020.38 1019.96 1019.57 1019.22 1018.92 1018.68 1018.49 1018.33 1018.18 1018.04 1017.90 1017.75 1017.60 1017.45 1017.31 1017.16 1017.02 1016.88 1016.73 1016.59 1016.46 1016.34 1016.24
1020.71 1020.94 1021.15 1021.32 1021.45 1021.52 1021.54 1021.52 1021.48 1021.45 1021.43 1021.44 1021.46 1021.48 1021.49 1021.44 1021.34 1021.17 1020.93 1020.65 1020.33 1020.01 1019.70 1019.40 1019.14 1018.90 1018.67 1018.45 1018.22 1017.98 1017.73 1017.46 1017.20 1016.93 1016.67 1016.41 1016.17 1015.93 1015.71 1015.52 1015.35 1015.23 1015.15
1021.16 1021.36 1021.56 1021.73 1021.85 1021.91 1021.92 1021.87 1021.80 1021.70 1021.61 1021.53 1021.47 1021.40 1021.33 1021.24 1021.12 1020.96 1020.77 1020.56 1020.32 1020.08 1019.83 1019.59 1019.34 1019.09 1018.82 1018.53 1018.22 1017.89 1017.53 1017.16 1016.78 1016.40 1016.03 1015.67 1015.32 1014.99 1014.69 1014.43 1014.22 1014.07 1014.00
1021.62 1021.81 1022.00 1022.16 1022.28 1022.34 1022.33 1022.27 1022.16 1022.02 1021.86 1021.70 1021.56 1021.41 1021.28 1021.14 1021.00 1020.85 1020.69 1020.52 1020.34 1020.15 1019.94 1019.72 1019.48 1019.20 1018.88 1018.52 1018.13 1017.71 1017.27 1016.81 1016.35 1015.88 1015.42 1014.97 1014.53 1014.12 1013.74 1013.40 1013.13 1012.95 1012.85
1022.08 1022.27 1022.45 1022.61 1022.72 1022.78 1022.76 1022.68 1022.54 1022.36 1022.16 1021.94 1021.72 1021.51 1021.31 1021.13 1020.96 1020.80 1020.65 1020.50 1020.34 1020.17 1019.97 1019.74 1019.47 1019.15 1018.78 1018.36 1017.91 1017.42 1016.91 1016.40 1015.88 1015.36 1014.85 1014.34 1013.84 1013.36 1012.91 1012.50 1012.17 1011.93 1011.79
1022.50 1022.68 1022.86 1023.02 1023.13 1023.18 1023.16 1023.07 1022.91 1022.70 1022.45 1022.19 1021.92 1021.65 1021.40 1021.17 1020.96 1020.78 1020.61 1020.44 1020.27 1020.08 1019.86 1019.60 1019.28 1018.91 1018.48 1018.02 1017.51 1016.99 1016.46 1015.92 1015.39 1014.86 1014.33 1013.80 1013.27 1012.75 1012.24 1011.78 1011.38 1011.08 1010.88
1022.83 1023.00 1023.17 1023.32 1023.43 1023.47 1023.45 1023.35 1023.19 1022.96 1022.69 1022.40 1022.08 1021.77 1021.47 1021.20 1020.94 1020.71 1020.50 1020.29 1020.08 1019.84 1019.58 1019.26 1018.89 1018.47 1018.00 1017.50 1016.97 1016.44 1015.92 1015.40 1014.89 1014.39 1013.88 1013.36 1012.83 1012.29 1011.75 1011.24 1010.78 1010.41 1010.15
1023.04 1023.19 1023.34 1023.48 1023.57 1023.61 1023.59 1023.50 1023.33 1023.11 1022.83 1022.51 1022.17 1021.83 1021.48 1021.16 1020.85 1020.56 1020.29 1020.02 1019.75 1019.45 1019.12 1018.75 1018.33 1017.87 1017.37 1016.86 1016.34 1015.83 1015.34 1014.87 1014.41 1013.96 1013.50 1013.01 1012.50 1011.96 1011.41 1010.86 1010.35 1009.92 1009.59
1023.10 1023.23 1023.36 1023.48 1023.56 1023.59 1023.57 1023.48 1023.33 1023.11 1022.84 1022.52 1022.16 1021.79 1021.40 1021.03 1020.66 1020.31 1019.97 1019.64 1019.30 1018.94 1018.55 1018.13 1017.67 1017.19 1016.68 1016.18 1015.69 1015.22 1014.78 1014.37 1013.98 1013.59 1013.18 1012.74 1012.26 1011.73 1011.16 1010.59 1010.04 1009.55 1009.16
1023.06 1023.16 1023.26 1023.35 1023.42 1023.46 1023.44 1023.36 1023.23 1023.02 1022.75 1022.43 1022.07 1021.67 1021.25 1020.83 1020.41 1020.00 1019.59 1019.19 1018.79 1018.38 1017.95 1017.50 1017.02 1016.54 1016.05 1015.57 1015.11 1014.69 1014.31 1013.96 1013.62 1013.28 1012.92 1012.51 1012.05 1011.53 1010.96 1010.37 1009.79 1009.26 1008.80
1022.97 1023.04 1023.11 1023.19 1023.25 1023.28 1023.27 1023.21 1023.09 1022.90 1022.64 1022.32 1021.94 1021.52 1021.07 1020.60 1020.13 1019.66 1019.20 1018.75 1018.31 1017.86 1017.41 1016.95 1016.48 1016.01 1015.55 1015.11 1014.69 1014.32 1013.97 1013.66 1013.36 1013.05 1012.71 1012.32 1011.86 1011.34 1010.76 1010.15 1009.55 1008.98 1008.49
Thickness
5745 5743 5741 5736 5733 5731 5727 5724 5721 5721 5720 5719 5718 5718 5716 5713 5711 5707 5705 5703 5701 5699 5697 5695 5693 5692 5690 5689 5689 5688 5687 5686 5685 5684 5682 5681 5680 5679 5678 5677 5676 5676 5676
5747 5743 5739 5735 5732 5729 5725 5720 5717 5714 5713 5711 5711 5710 5708 5705 5703 5700 5699 5697 5695 5693 5691 5689 5688 5686 5685 5684 5683 5682 5681 5680 5678 5677 5676 5675 5673 5672 5671 5670 5669 5669 5668
5745 5740 5736 5732 5729 5725 5721 5716 5711 5708 5705 5704 5702 5701 5700 5697 5695 5693 5690 5690 5688 5686 5684 5682 5681 5680 5678 5677 5676 5675 5674 5672 5671 5670 5668 5667 5665 5664 5663 5662 5661 5661 5660
5741 5736 5732 5728 5723 5718 5713 5708 5702 5698 5694 5692 5691 5690 5689 5689 5688 5686 5683 5682 5681 5679 5677 5675 5673 5672 5670 5669 5668 5666 5665 5663 5662 5660 5659 5657 5656 5655 5654 5653 5652 5651 5651
5738 5733 5727 5722 5717 5712 5707 5702 5695 5690 5685 5682 5681 5680 5679 5678 5678 5677 5675 5674 5672 5671 5670 5668 5666 5664 5662 5660 5658 5656 5655 5653 5651 5649 5648 5646 5644 5643 5642 5642 5641 5641 5641
5733 5728 5721 5716 5712 5707 5700 5694 5687 5682 5678 5674 5673 5672 5670 5670 5670 5669 5667 5667 5665 5664 5662 5661 5658 5656 5654 5651 5648 5646 5644 5641 5639 5637 5635 5633 5631 5630 5629 5628 5628 5628 5628
5726 5721 5715 5710 5705 5699 5693 5688 5681 5675 5670 5667 5664 5663 5664 5665 5665 5663 5660 5659 5659 5657 5655 5652 5649 5648 5645 5642 5639 5635 5632 5629 5626 5624 5621 5619 5617 5615 5614 5614 5613 5613 5614
5718 5713 5709 5703 5698 5692 5686 5681 5676 5670 5665 5661 5658 5654 5653 5656 5659 5659 5655 5652 5650 5649 5647 5645 5642 5639 5636 5632 5629 5625 5621 5617 5614 5610 5607 5604 5601 5599 5598 5598 5598 5598 5599
5710 5705 5700 5696 5690 5685 5680 5675 5670 5664 5658 5654 5652 5647 5643 5643 5644 5647 5646 5645 5643 5639 5636 5634 5631 5628 5625 5621 5617 5613 5609 5604 5600 5596 5592 5588 5585 5583 5582 5582 5582 5582 5583
5699 5695 5690 5686 5681 5676 5671 5667 5662 5658 5652 5646 5643 5639 5636 5633 5628 5628 5631 5632 5631 5628 5625 5623 5620 5616 5612 5608 5604 5600 5596 5592 5587 5582 5576 5572 5568 5566 5564 5564 5564 5565 5566
5687 5683 5678 5674 5669 5665 5660 5655 5651 5646 5642 5637 5632 5628 5624 5620 5616 5612 5613 5614 5614 5613 5611 5608 5605 5602 5598 5594 5590 5585 5581 5576 5571 5565 5560 5555 5551 5548 5547 5546 5546 5547 5548
5674 5669 5665 5661 5656 5651 5647 5642 5638 5633 5629 5624 5620 5615 5610 5606 5602 5599 5597 5597 5597 5598 5596 5593 5590 5587 5583 5579 5574 5569 5564 5558 5553 5548 5543 5538 5534 5531 5530 5529 5529 5529 5530
5660 5655 5651 5647 5642 5638 5633 5629 5625 5620 5615 5610 5605 5601 5597 5592 5589 5584 5581 5581 5581 5581 5580 5578 5575 5572 5567 5562 5556 5550 5545 5540 5535 5531 5526 5521 5518 5515 5513 5512 5511 5511 5512
5646 5641 5637 5633 5628 5624 5620 5615 5611 5606 5601 5596 5592 5587 5583 5578 5575 5571 5567 5565 5564 5564 5562 5560 5558 5554 5549 5543 5537 5531 5526 5521 5517 5513 5509 5505 5502 5500 5497 5496 5495 5494 5494
5632 5627 5623 5618 5614 5609 5605 5601 5596 5591 5586 5582 5577 5573 5568 5564 5560 5557 5553 5549 5546 5545 5546 5542 5538 5535 5530 5525 5518 5514 5509 5505 5501 5497 5494 5491 5488 5486 5483 5481 5480 5479 5479
5617 5612 5607 5603 5598 5593 5589 5585 5580 5576 5571 5566 5562 5557 5553 5548 5544 5540 5536 5533 5530 5527 5528 5525 5520 5516 5511 5506 5501 5497 5493 5490 5487 5484 5481 5478 5476 5473 5470 5468 5467 5466 5466
5601 5596 5591 5586 5582 5577 5572 5567 5563 5559 5555 5550 5545 5541 5536 5532 5527 5522 5518 5515 5512 5509 5507 5507 5502 5498 5494 5489 5486 5482 5479 5477 5475 5473 5471 5468 5465 5462 5459 5457 5456 5455 5455
5585 5579 5574 5570 5565 5560 5555 5550 5545 5541 5537 5532 5528 5523 5519 5515 5510 5506 5502 5498 5495 5491 5489 5488 5486 5482 5479 5475 5473 5470 5467 5465 5464 5462 5460 5459 5457 5454 5452 5450 5448 5447 5447
5567 5562 5557 5552 5547 5542 5537 5532 5526 5522 5519 5514 5510 5507 5503 5499 5495 5491 5487 5484 5481 5478 5474 5471 5471 5469 5466 5464 5461 5459 5456 5454 5453 5452 5452 5451 5450 5448 5446 5445 5444 5443 5443
5549 5544 5539 5534 5529 5523 5517 5511 5507 5504 5501 5498 5495 5492 5489 5486 5483 5479 5475 5471 5468 5464 5461 5459 5458 5457 5455 5454 5451 5448 5447 5446 5444 5443 5443 5443 5442 5442 5442 5441 5441 5440 5440
5532 5526 5521 5516 5511 5504 5495 5490 5486 5486 5483 5482 5480 5479 5477 5475 5472 5467 5463 5459 5454 5452 5450 5448 5448 5447 5446 5444 5441 5439 5438 5438 5438 5437 5437 5437 5436 5436 5436 5437 5437 5438 5437
5513 5508 5503 5498 5492 5485 5476 5472 5469 5468 5467 5467 5467 5466 5465 5464 5462 5457 5452 5448 5444 5442 5441 5439 5438 5437 5438 5436 5435 5433 5431 5431 5433 5433 5430 5430 5430 5431 5432 5433 5434 5434 5433
5495 5490 5486 5481 5475 5465 5460 5456 5454 5453 5454 5455 5454 5453 5453 5453 5449 5445 5442 5440 5439 5438 5436 5434 5433 5433 5433 5432 5431 5429 5427 5425 5425 5426 5424 5426 5426 5426 5427 5428 5428 5428 5429
5479 5475 5470 5465 5459 5451 5445 5442 5440 5441 5443 5443 5443 5442 5441 5439 5437 5432 5431 5433 5434 5434 5433 5434 5432 5432 5432 5431 5428 5426 5424 5423 5422 5422 5421 5420 5422 5422 5423 5423 5423 5423 5424
5464 5459 5455 5450 5445 5438 5432 5428 5426 5428 5431 5431 5431 5431 5430 5429 5425 5423 5424 5427 5429 5431 5432 5432 5432 5431 5431 5430 5428 5424 5422 5420 5420 5420 5418 5416 5417 5417 5418 5419 5419 5419 5419
5450 5445 5441 5436 5432 5426 5419 5416 5413 5416 5418 5418 5420 5421 5421 5419 5418 5418 5419 5422 5425 5428 5430 5431 5432 5433 5433 5431 5428 5424 5420 5417 5416 5416 5415 5411 5411 5410 5412 5414 5414 5415 5416